Regional Weather Roundup
Issued by NWS State College, PA

Home | Current Version | Previous Version | Text Only | Print | Product List | Glossary On
Versions: 1 2 3 4 5 6 7 8 9 10 11 12 13 14 15 16 17 18 19 20 21 22 23 24 25 26 27 28 29 30 31 32 33 34 35 36 37 38 39 40 41 42 43 44 45 46 47 48 49 50
000
ASUS41 KCTP 281203
RWRCTP

REGIONAL WEATHER ROUNDUP
NATIONAL WEATHER SERVICE STATE COLLEGE PA
800 AM EDT SUN MAY 28 2017

Note: "fair" indicates few or no clouds below 12,000 feet with no
significant weather and/or obstructions to visibility.

* = STATION THAT DOES NOT REPORT PRECIPITATION /E.G. RAIN...SNOW...ETC/
    THUNDER OR FOG.

PAZ002>004-007>009-013>016-020>023-029>032-281300-
WESTERN PENNSYLVANIA

CITY           SKY/WX    TMP DP  RH WIND       PRES   REMARKS
ERIE           MOSUNNY   60  54  80 CALM      29.82F
MEADVILLE      MOSUNNY   59  56  89 E5        29.83F
FRANKLIN*      MOSUNNY   55  52  88 E6        29.84F
NEW CASTLE     FAIR      58  56  93 W3        29.83S
BEAVER COUNTY  NOT AVBL
BUTLER*        MOSUNNY   61  57  88 E7        29.83S
PITTSBURGH INT FOG       59  59 100 SE7       29.81F VSB 1/4
PITTSBURGH     CLOUDY    60  57  89 SE5       29.82S
INDIANA*       SUNNY     61  61 100 E6        29.87F
LATROBE        SUNNY     57  57 100 CALM      29.83F FOG
WASHINGTON CO* SUNNY     59  57  94 CALM      29.85S
$$

PAZ004>006-010>012-017>019-024>028-033>037-041-042-045-046-049>053-281300-
CENTRAL PENNSYLVANIA

CITY           SKY/WX    TMP DP  RH WIND       PRES   REMARKS
BRADFORD       CLOUDY    55  55 100 SE5       29.87F
DUBOIS         FOG       55  53  93 E8        29.86F VSB 1/4
CLEARFIELD     CLOUDY    56  56 100 NE3       29.89S FOG
JOHNSTOWN      PTSUNNY   59  59 100 S3        29.87S
ALTOONA        CLOUDY    60  60 100 NE3       29.89S FOG
STATE COLLEGE  FOG       57  57 100 CALM      29.89S VSB 1/4
WILLIAMSPORT   CLOUDY    62  57  83 CALM      29.89S
SELINSGROVE    CLOUDY    57  57 100 CALM      29.91S FOG
FT INDIANTOWN  SUNNY     58  58 100 CALM      29.91S
CAPITAL CITY   FOG       61  58  90 SE3       29.90F VSB 1/2
HARRISBURG     FOG       60  60 100 SE3       29.89F VSB 1/4
YORK           CLOUDY    59  59 100 E6        29.90F FOG
$$

PAZ038>040-043-044-047-048-054-055-060>062-067>071-281300-
EASTERN PENNSYLVANIA

CITY           SKY/WX    TMP DP  RH WIND       PRES   REMARKS
SCRANTON       MOSUNNY   64  55  72 E3        29.91F
MOUNT POCONO   SUNNY     61  54  77 SE6       29.95R
ALLENTOWN      SUNNY     63  56  78 CALM      29.93R
QUAKERTOWN*    SUNNY     59  57  94 CALM      29.95R
READING        SUNNY     60  59  96 CALM      29.90F
LANCASTER      FOG       60  60 100 CALM      29.91S VSB<1/4
COATESVILLE    SUNNY     61  61 100 CALM      29.94R FOG
POTTSTOWN      SUNNY     61  58  90 NE5       29.94R
BLUE BELL      CLOUDY    61  59  94 E3        29.94R
DOYLESTOWN     SUNNY     61  58  90 N5        29.93R
WILLOW GROVE   NOT AVBL
NORTH PHILA    SUNNY     66  61  84 NE3       29.94R
PHILADELPHIA   PTSUNNY   67  61  81 CALM      29.93R
$$



USA.gov is the U.S. government's official web portal to all federal, state and local government web resources and services.